Private Wetterstation Wechselburg
Wetterdaten: Montag, 09.05.2011
Datum Zeit Temp. +2m Bodentemp. Temp.+5cm Temp. Wind Windchill X Diff Temp. Feuchte +2m Feuchte +5cm Sonnenschein Luftdruck Regen Wind Richtung Richtung Sonnenschein UV Taupunkt Windchill Windben
09.05.2011 00:02 13,1 C 17,5 C 11,0 C 11,7 C 8,8 C 0,0 C 63 % 70 % 0 % 1026,7 hPa 0,0 l/m 0,2 km/h (0 Bft) SW 225 0 min 0,0 UV-I 6,2 C 8,8 C 2,7 km/h (1 Bft)
09.05.2011 00:07 13,1 C 17,5 C 11,0 C 11,7 C 8,8 C 0,0 C 63 % 70 % 0 % 1026,7 hPa 0,0 l/m 0,2 km/h (0 Bft) SW 225 0 min 0,0 UV-I 6,2 C 8,8 C 2,7 km/h (1 Bft)
09.05.2011 00:12 12,8 C 17,5 C 10,9 C 11,4 C 8,7 C 0,0 C 63 % 71 % 0 % 1026,0 hPa 0,0 l/m 0,2 km/h (0 Bft) N-NW 337 0 min 0,0 UV-I 5,9 C 8,7 C 0,0 km/h (0 Bft)
09.05.2011 00:17 12,8 C 17,5 C 10,8 C 11,4 C 8,7 C 0,0 C 63 % 71 % 0 % 1026,0 hPa 0,0 l/m 0,0 km/h (0 Bft) N-NW 337 0 min 0,0 UV-I 5,9 C 8,7 C 0,0 km/h (0 Bft)
09.05.2011 00:22 12,6 C 17,2 C 10,7 C 11,3 C 8,8 C 0,0 C 63 % 71 % 0 % 1026,0 hPa 0,0 l/m 0,0 km/h (0 Bft) NO 45 0 min 0,0 UV-I 5,7 C 8,8 C 0,0 km/h (0 Bft)
09.05.2011 00:27 12,5 C 17,2 C 10,7 C 11,3 C 8,8 C 0,0 C 63 % 71 % 0 % 1026,0 hPa 0,0 l/m 0,0 km/h (0 Bft) NO 45 0 min 0,0 UV-I 5,7 C 8,8 C 0,0 km/h (0 Bft)
09.05.2011 00:32 12,3 C 17,2 C 10,4 C 11,1 C 8,7 C 0,0 C 63 % 72 % 0 % 1026,6 hPa 0,0 l/m 0,0 km/h (0 Bft) NO 45 0 min 0,0 UV-I 5,5 C 8,7 C 1,8 km/h (1 Bft)
09.05.2011 00:37 12,3 C 17,2 C 10,3 C 11,1 C 8,7 C 0,0 C 64 % 72 % 0 % 1026,6 hPa 0,0 l/m 0,0 km/h (0 Bft) NO 45 0 min 0,0 UV-I 5,7 C 8,7 C 0,0 km/h (0 Bft)
09.05.2011 00:42 12,2 C 17,2 C 10,3 C 11,1 C 9,0 C 0,0 C 63 % 72 % 0 % 1026,6 hPa 0,0 l/m 0,3 km/h (0 Bft) O-NO 67 0 min 0,0 UV-I 5,4 C 9,0 C 0,0 km/h (0 Bft)
09.05.2011 00:47 12,2 C 17,1 C 10,3 C 11,2 C 9,1 C 0,0 C 63 % 72 % 0 % 1026,6 hPa 0,0 l/m 0,3 km/h (0 Bft) N-NO 22 0 min 0,0 UV-I 5,4 C 9,1 C 0,0 km/h (0 Bft)
09.05.2011 00:52 12,1 C 17,1 C 10,4 C 11,2 C 9,3 C 0,0 C 63 % 71 % 0 % 1026,2 hPa 0,0 l/m 0,6 km/h (0 Bft) N-NO 22 0 min 0,0 UV-I 5,3 C 9,3 C 0,0 km/h (0 Bft)
09.05.2011 00:57 12,1 C 17,1 C 10,4 C 11,2 C 9,3 C 0,0 C 64 % 71 % 0 % 1026,2 hPa 0,0 l/m 0,5 km/h (0 Bft) N-NW 337 0 min 0,0 UV-I 5,5 C 9,3 C 0,0 km/h (0 Bft)
09.05.2011 01:02 12,1 C 17,1 C 10,4 C 11,1 C 9,0 C 0,0 C 65 % 72 % 0 % 1026,2 hPa 0,0 l/m 0,3 km/h (0 Bft) N-NW 337 0 min 0,0 UV-I 5,7 C 9,0 C 1,8 km/h (1 Bft)
09.05.2011 01:07 12,0 C 17,1 C 10,3 C 11,0 C 9,0 C 0,0 C 64 % 72 % 0 % 1026,2 hPa 0,0 l/m 0,5 km/h (0 Bft) N-NW 337 0 min 0,0 UV-I 5,4 C 9,0 C 0,0 km/h (0 Bft)
09.05.2011 01:12 12,0 C 17,0 C 10,1 C 11,0 C 9,0 C 0,0 C 64 % 72 % 0 % 1026,4 hPa 0,0 l/m 0,8 km/h (0 Bft) NW 315 0 min 0,0 UV-I 5,4 C 9,0 C 1,8 km/h (1 Bft)
09.05.2011 01:17 12,0 C 17,0 C 10,0 C 11,0 C 9,1 C 0,0 C 64 % 72 % 0 % 1026,4 hPa 0,0 l/m 0,8 km/h (0 Bft) N-NO 22 0 min 0,0 UV-I 5,4 C 9,1 C 0,0 km/h (0 Bft)
09.05.2011 01:22 11,8 C 17,0 C 10,0 C 10,9 C 9,1 C 0,0 C 64 % 72 % 0 % 1026,4 hPa 0,0 l/m 0,6 km/h (0 Bft) NO 45 0 min 0,0 UV-I 5,2 C 9,1 C 0,0 km/h (0 Bft)
09.05.2011 01:27 11,9 C 17,0 C 10,0 C 11,0 C 9,1 C 0,0 C 64 % 72 % 0 % 1026,4 hPa 0,0 l/m 0,5 km/h (0 Bft) N-NO 22 0 min 0,0 UV-I 5,3 C 9,1 C 0,0 km/h (0 Bft)
09.05.2011 01:32 11,9 C 17,0 C 10,1 C 10,9 C 9,0 C 0,0 C 65 % 72 % 0 % 1026,4 hPa 0,0 l/m 0,5 km/h (0 Bft) N-NW 337 0 min 0,0 UV-I 5,5 C 9,0 C 1,6 km/h (1 Bft)
09.05.2011 01:37 11,9 C 16,9 C 10,0 C 11,0 C 9,1 C 0,0 C 64 % 72 % 0 % 1026,4 hPa 0,0 l/m 0,6 km/h (0 Bft) N-NW 337 0 min 0,0 UV-I 5,3 C 9,1 C 0,0 km/h (0 Bft)
09.05.2011 01:42 11,9 C 16,9 C 10,1 C 11,0 C 9,1 C 0,0 C 64 % 73 % 0 % 1026,4 hPa 0,0 l/m 1,4 km/h (1 Bft) N-NW 337 0 min 0,0 UV-I 5,3 C 9,1 C 2,3 km/h (1 Bft)
09.05.2011 01:47 11,9 C 16,9 C 10,0 C 11,0 C 9,2 C 0,0 C 64 % 73 % 0 % 1026,4 hPa 0,0 l/m 1,6 km/h (1 Bft) N-NW 337 0 min 0,0 UV-I 5,3 C 9,2 C 2,1 km/h (1 Bft)
09.05.2011 01:52 11,8 C 16,9 C 9,8 C 10,9 C 9,0 C 0,0 C 66 % 74 % 0 % 1026,6 hPa 0,0 l/m 1,0 km/h (0 Bft) NW 315 0 min 0,0 UV-I 5,7 C 9,0 C 2,1 km/h (1 Bft)
09.05.2011 01:57 11,6 C 17,0 C 9,7 C 10,6 C 8,7 C 0,0 C 67 % 74 % 0 % 1026,6 hPa 0,0 l/m 0,3 km/h (0 Bft) S-SW 202 0 min 0,0 UV-I 5,7 C 8,7 C 0,0 km/h (0 Bft)
09.05.2011 02:02 11,5 C 17,0 C 9,4 C 10,4 C 8,2 C 0,0 C 67 % 75 % 0 % 1026,6 hPa 0,0 l/m 0,0 km/h (0 Bft) N-NO 22 0 min 0,0 UV-I 5,6 C 8,2 C 0,0 km/h (0 Bft)
09.05.2011 02:07 11,2 C 16,9 C 9,2 C 10,1 C 7,9 C 0,0 C 67 % 76 % 0 % 1026,6 hPa 0,0 l/m 0,0 km/h (0 Bft) O-NO 67 0 min 0,0 UV-I 5,3 C 7,9 C 0,0 km/h (0 Bft)
09.05.2011 02:12 11,1 C 16,9 C 9,2 C 10,0 C 7,8 C 0,0 C 68 % 76 % 0 % 1026,7 hPa 0,0 l/m 0,0 km/h (0 Bft) N 360 0 min 0,0 UV-I 5,4 C 7,8 C 0,0 km/h (0 Bft)
09.05.2011 02:17 11,1 C 16,9 C 9,2 C 10,0 C 7,8 C 0,0 C 68 % 76 % 0 % 1026,7 hPa 0,0 l/m 0,0 km/h (0 Bft) N-NO 22 0 min 0,0 UV-I 5,4 C 7,8 C 0,0 km/h (0 Bft)
09.05.2011 02:22 11,1 C 16,9 C 9,1 C 10,0 C 7,9 C 0,0 C 69 % 76 % 0 % 1026,7 hPa 0,0 l/m 0,0 km/h (0 Bft) NW 315 0 min 0,0 UV-I 5,6 C 7,9 C 0,0 km/h (0 Bft)
09.05.2011 02:27 11,1 C 16,9 C 9,1 C 10,0 C 7,7 C 0,0 C 68 % 77 % 0 % 1026,7 hPa 0,0 l/m 0,0 km/h (0 Bft) NW 315 0 min 0,0 UV-I 5,4 C 7,7 C 0,0 km/h (0 Bft)
09.05.2011 02:32 11,1 C 16,8 C 9,1 C 10,0 C 7,7 C 0,0 C 69 % 77 % 0 % 1026,8 hPa 0,0 l/m 0,0 km/h (0 Bft) NW 315 0 min 0,0 UV-I 5,6 C 7,7 C 0,0 km/h (0 Bft)
09.05.2011 02:37 11,0 C 16,8 C 8,9 C 9,8 C 7,4 C 0,0 C 69 % 77 % 0 % 1026,8 hPa 0,0 l/m 0,2 km/h (0 Bft) SW 225 0 min 0,0 UV-I 5,5 C 7,4 C 2,9 km/h (1 Bft)
09.05.2011 02:42 10,9 C 16,8 C 8,7 C 9,6 C 6,9 C 0,0 C 69 % 77 % 0 % 1026,8 hPa 0,0 l/m 0,5 km/h (0 Bft) W-SW 247 0 min 0,0 UV-I 5,4 C 6,9 C 0,0 km/h (0 Bft)
09.05.2011 02:47 10,8 C 16,8 C 8,5 C 9,4 C 6,6 C 0,0 C 70 % 78 % 0 % 1026,8 hPa 0,0 l/m 0,5 km/h (0 Bft) N-NW 337 0 min 0,0 UV-I 5,6 C 6,6 C 0,0 km/h (0 Bft)
09.05.2011 02:52 10,3 C 16,8 C 8,5 C 9,0 C 6,4 C 0,0 C 70 % 78 % 0 % 1026,8 hPa 0,0 l/m 0,0 km/h (0 Bft) N-NO 22 0 min 0,0 UV-I 5,1 C 6,4 C 0,0 km/h (0 Bft)
09.05.2011 02:57 10,3 C 16,8 C 8,3 C 8,9 C 6,2 C 0,0 C 71 % 79 % 0 % 1026,8 hPa 0,0 l/m 0,0 km/h (0 Bft) N-NO 22 0 min 0,0 UV-I 5,3 C 6,2 C 0,0 km/h (0 Bft)
09.05.2011 03:02 10,3 C 16,8 C 8,4 C 8,9 C 6,0 C 0,0 C 71 % 79 % 0 % 1026,8 hPa 0,0 l/m 0,0 km/h (0 Bft) W-SW 247 0 min 0,0 UV-I 5,3 C 6,0 C 0,0 km/h (0 Bft)
09.05.2011 03:07 10,1 C 16,8 C 8,3 C 8,7 C 5,9 C 0,0 C 71 % 79 % 0 % 1026,8 hPa 0,0 l/m 0,0 km/h (0 Bft) O-NO 67 0 min 0,0 UV-I 5,1 C 5,9 C 0,0 km/h (0 Bft)
09.05.2011 03:12 9,8 C 16,8 C 8,1 C 8,6 C 6,2 C 0,0 C 71 % 80 % 0 % 1026,6 hPa 0,0 l/m 0,3 km/h (0 Bft) NO 45 0 min 0,0 UV-I 4,8 C 6,2 C 0,0 km/h (0 Bft)
09.05.2011 03:17 9,9 C 16,7 C 8,1 C 8,7 C 6,2 C 0,0 C 72 % 80 % 0 % 1026,6 hPa 0,0 l/m 0,3 km/h (0 Bft) NO 45 0 min 0,0 UV-I 5,1 C 6,2 C 0,0 km/h (0 Bft)
09.05.2011 03:22 10,0 C 16,7 C 8,1 C 8,6 C 5,9 C 0,0 C 72 % 80 % 0 % 1026,6 hPa 0,0 l/m 0,0 km/h (0 Bft) SW 225 0 min 0,0 UV-I 5,2 C 5,9 C 0,0 km/h (0 Bft)
09.05.2011 03:27 9,8 C 16,7 C 8,1 C 8,5 C 5,8 C 0,0 C 72 % 79 % 0 % 1026,6 hPa 0,0 l/m 0,0 km/h (0 Bft) SW 225 0 min 0,0 UV-I 5,0 C 5,8 C 0,0 km/h (0 Bft)
09.05.2011 03:32 9,6 C 16,7 C 7,8 C 8,3 C 5,8 C 0,0 C 73 % 80 % 0 % 1027,0 hPa 0,0 l/m 0,0 km/h (0 Bft) O-NO 67 0 min 0,0 UV-I 5,0 C 5,8 C 0,0 km/h (0 Bft)
09.05.2011 03:37 9,7 C 16,7 C 7,9 C 8,4 C 5,8 C 0,0 C 73 % 80 % 0 % 1027,0 hPa 0,0 l/m 0,0 km/h (0 Bft) O-NO 67 0 min 0,0 UV-I 5,1 C 5,8 C 0,0 km/h (0 Bft)
09.05.2011 03:42 9,7 C 16,7 C 7,9 C 8,3 C 5,6 C 0,0 C 73 % 80 % 0 % 1027,0 hPa 0,0 l/m 0,0 km/h (0 Bft) NO 45 0 min 0,0 UV-I 5,1 C 5,6 C 0,0 km/h (0 Bft)
09.05.2011 03:47 9,7 C 16,6 C 7,9 C 8,3 C 5,6 C 0,0 C 73 % 80 % 0 % 1027,0 hPa 0,0 l/m 0,0 km/h (0 Bft) W 270 0 min 0,0 UV-I 5,1 C 5,6 C 0,0 km/h (0 Bft)
09.05.2011 03:52 9,7 C 16,6 C 7,7 C 8,2 C 5,3 C 0,0 C 72 % 80 % 0 % 1027,1 hPa 0,0 l/m 0,0 km/h (0 Bft) N-NO 22 0 min 0,0 UV-I 4,9 C 5,3 C 0,0 km/h (0 Bft)
09.05.2011 03:57 9,6 C 16,6 C 7,6 C 8,2 C 5,3 C 0,0 C 72 % 80 % 0 % 1027,1 hPa 0,0 l/m 0,0 km/h (0 Bft) N-NO 22 0 min 0,0 UV-I 4,8 C 5,3 C 0,0 km/h (0 Bft)
09.05.2011 04:02 9,5 C 16,6 C 7,6 C 8,1 C 5,2 C 0,0 C 73 % 80 % 0 % 1027,1 hPa 0,0 l/m 0,0 km/h (0 Bft) N-NO 22 0 min 0,0 UV-I 4,9 C 5,2 C 0,0 km/h (0 Bft)
09.05.2011 04:07 9,5 C 16,5 C 7,5 C 8,0 C 5,1 C 0,0 C 73 % 80 % 0 % 1027,1 hPa 0,0 l/m 0,0 km/h (0 Bft) S-SW 202 0 min 0,0 UV-I 4,9 C 5,1 C 0,0 km/h (0 Bft)
09.05.2011 04:12 9,2 C 16,6 C 7,5 C 7,8 C 5,1 C 0,0 C 73 % 80 % 0 % 1027,4 hPa 0,0 l/m 0,0 km/h (0 Bft) NO 45 0 min 0,0 UV-I 4,6 C 5,1 C 0,0 km/h (0 Bft)
09.05.2011 04:17 9,1 C 16,6 C 7,3 C 7,8 C 5,2 C 0,0 C 73 % 81 % 0 % 1027,4 hPa 0,0 l/m 0,0 km/h (0 Bft) NO 45 0 min 0,0 UV-I 4,5 C 5,2 C 0,0 km/h (0 Bft)
09.05.2011 04:22 9,2 C 16,5 C 7,4 C 7,9 C 5,2 C 0,0 C 74 % 81 % 0 % 1027,4 hPa 0,0 l/m 0,0 km/h (0 Bft) NO 45 0 min 0,0 UV-I 4,8 C 5,2 C 0,0 km/h (0 Bft)
09.05.2011 04:27 9,1 C 16,6 C 7,4 C 7,8 C 5,1 C 0,0 C 74 % 81 % 0 % 1027,4 hPa 0,0 l/m 0,0 km/h (0 Bft) NO 45 0 min 0,0 UV-I 4,7 C 5,1 C 0,0 km/h (0 Bft)
09.05.2011 04:32 8,9 C 16,5 C 7,3 C 7,7 C 5,4 C 0,0 C 74 % 81 % 0 % 1027,5 hPa 0,0 l/m 0,5 km/h (0 Bft) O-NO 67 0 min 0,0 UV-I 4,5 C 5,4 C 1,6 km/h (1 Bft)
09.05.2011 04:37 8,8 C 16,5 C 7,2 C 7,7 C 5,6 C 0,0 C 74 % 81 % 0 % 1027,5 hPa 0,0 l/m 0,5 km/h (0 Bft) NO 45 0 min 0,0 UV-I 4,4 C 5,6 C 0,0 km/h (0 Bft)
09.05.2011 04:42 8,9 C 16,4 C 7,3 C 7,8 C 5,6 C 0,0 C 75 % 82 % 0 % 1027,5 hPa 0,0 l/m 0,0 km/h (0 Bft) NW 315 0 min 0,0 UV-I 4,7 C 5,6 C 0,0 km/h (0 Bft)
09.05.2011 04:47 9,0 C 16,4 C 7,3 C 7,8 C 5,4 C 0,0 C 74 % 82 % 0 % 1027,5 hPa 0,0 l/m 0,0 km/h (0 Bft) N-NW 337 0 min 0,0 UV-I 4,6 C 5,4 C 0,0 km/h (0 Bft)
09.05.2011 05:02 8,8 C 16,4 C 7,1 C 7,5 C 4,9 C 0,0 C 74 % 81 % 0 % 1027,6 hPa 0,0 l/m 0,0 km/h (0 Bft) SW 225 0 min 0,0 UV-I 4,4 C 4,9 C 2,1 km/h (1 Bft)
09.05.2011 05:05 8,8 C 16,4 C 7,1 C 7,5 C 4,9 C 0,0 C 74 % 81 % 0 % 1027,6 hPa 0,0 l/m 0,0 km/h (0 Bft) SW 225 0 min 0,0 UV-I 4,4 C 4,9 C 2,1 km/h (1 Bft)
09.05.2011 05:10 8,8 C 16,4 C 7,0 C 7,4 C 4,7 C 0,0 C 74 % 81 % 0 % 1027,6 hPa 0,0 l/m 0,0 km/h (0 Bft) W-SW 247 0 min 0,0 UV-I 4,4 C 4,7 C 0,0 km/h (0 Bft)
09.05.2011 05:15 8,8 C 16,4 C 7,0 C 7,3 C 4,3 C 0,0 C 74 % 81 % 0 % 1027,7 hPa 0,0 l/m 0,0 km/h (0 Bft) W-SW 247 0 min 0,0 UV-I 4,4 C 4,3 C 0,0 km/h (0 Bft)
09.05.2011 05:20 8,7 C 16,4 C 7,0 C 7,2 C 4,2 C 0,0 C 74 % 81 % 0 % 1027,7 hPa 0,0 l/m 0,0 km/h (0 Bft) SW 225 0 min 0,0 UV-I 4,3 C 4,2 C 0,0 km/h (0 Bft)
09.05.2011 05:25 8,5 C 16,4 C 6,7 C 7,0 C 3,9 C 0,0 C 74 % 82 % 0 % 1027,7 hPa 0,0 l/m 0,0 km/h (0 Bft) SW 225 0 min 0,0 UV-I 4,1 C 3,9 C 0,0 km/h (0 Bft)
09.05.2011 05:30 8,4 C 16,4 C 6,7 C 6,9 C 3,9 C 0,0 C 75 % 82 % 0 % 1027,7 hPa 0,0 l/m 0,0 km/h (0 Bft) SW 225 0 min 0,0 UV-I 4,2 C 3,9 C 0,0 km/h (0 Bft)
09.05.2011 05:35 8,5 C 16,4 C 6,7 C 7,0 C 3,9 C 0,0 C 75 % 82 % 0 % 1027,9 hPa 0,0 l/m 0,2 km/h (0 Bft) SW 225 0 min 0,0 UV-I 4,3 C 3,9 C 1,8 km/h (1 Bft)
09.05.2011 05:40 8,4 C 16,4 C 6,7 C 6,9 C 3,9 C 0,0 C 75 % 83 % 0 % 1027,9 hPa 0,0 l/m 0,2 km/h (0 Bft) SW 225 0 min 0,0 UV-I 4,2 C 3,9 C 0,0 km/h (0 Bft)
09.05.2011 05:45 8,4 C 16,4 C 6,6 C 6,9 C 3,8 C 0,0 C 75 % 82 % 0 % 1027,9 hPa 0,0 l/m 0,0 km/h (0 Bft) SW 225 0 min 0,0 UV-I 4,2 C 3,8 C 0,0 km/h (0 Bft)
09.05.2011 05:50 8,3 C 16,4 C 6,4 C 6,8 C 3,9 C 0,0 C 75 % 82 % 0 % 1027,9 hPa 0,0 l/m 0,0 km/h (0 Bft) SW 225 0 min 0,0 UV-I 4,1 C 3,9 C 0,0 km/h (0 Bft)
09.05.2011 05:55 8,1 C 16,4 C 6,4 C 6,7 C 4,0 C 0,0 C 76 % 83 % 0 % 1028,0 hPa 0,0 l/m 0,0 km/h (0 Bft) SW 225 0 min 0,0 UV-I 4,1 C 4,0 C 0,0 km/h (0 Bft)
09.05.2011 06:00 8,0 C 16,4 C 6,3 C 6,7 C 4,2 C 0,0 C 76 % 83 % 0 % 1028,0 hPa 0,0 l/m 0,0 km/h (0 Bft) SW 225 0 min 0,0 UV-I 4,0 C 4,2 C 0,0 km/h (0 Bft)
09.05.2011 06:10 8,2 C 16,3 C 6,4 C 6,9 C 4,3 C 0,0 C 77 % 84 % 0 % 1028,0 hPa 0,0 l/m 0,0 km/h (0 Bft) N 0 0 min 0,0 UV-I 4,4 C 4,3 C 0,0 km/h (0 Bft)
09.05.2011 06:15 8,4 C 16,2 C 6,4 C 7,1 C 4,4 C 0,0 C 76 % 84 % 0 % 1028,2 hPa 0,0 l/m 0,3 km/h (0 Bft) SW 225 0 min 0,0 UV-I 4,4 C 4,4 C 1,8 km/h (1 Bft)
09.05.2011 06:20 9,5 C 16,2 C 6,4 C 7,8 C 4,4 C 0,0 C 74 % 84 % 0 % 1028,2 hPa 0,0 l/m 0,3 km/h (0 Bft) SW 225 0 min 0,0 UV-I 5,1 C 4,4 C 0,0 km/h (0 Bft)
09.05.2011 06:25 10,1 C 16,0 C 6,5 C 8,3 C 4,6 C 0,0 C 72 % 84 % 0 % 1028,2 hPa 0,0 l/m 0,0 km/h (0 Bft) W-NW 292 0 min 0,0 UV-I 5,3 C 4,6 C 0,0 km/h (0 Bft)
09.05.2011 06:30 10,4 C 16,0 C 6,4 C 8,5 C 4,7 C 0,0 C 71 % 84 % 0 % 1028,2 hPa 0,0 l/m 0,0 km/h (0 Bft) W 270 0 min 0,0 UV-I 5,4 C 4,7 C 0,0 km/h (0 Bft)
09.05.2011 06:35 10,7 C 16,1 C 6,8 C 8,8 C 5,1 C 0,0 C 70 % 84 % 0 % 1028,2 hPa 0,0 l/m 0,0 km/h (0 Bft) W 270 0 min 0,0 UV-I 5,5 C 5,1 C 0,0 km/h (0 Bft)
09.05.2011 06:40 10,8 C 16,0 C 7,1 C 9,0 C 5,4 C 0,0 C 71 % 84 % 0 % 1028,2 hPa 0,0 l/m 0,0 km/h (0 Bft) W 270 0 min 0,0 UV-I 5,8 C 5,4 C 0,0 km/h (0 Bft)
09.05.2011 06:45 11,1 C 15,9 C 7,7 C 9,3 C 5,7 C 0,0 C 70 % 84 % 0 % 1028,2 hPa 0,0 l/m 0,0 km/h (0 Bft) W 270 0 min 0,0 UV-I 5,8 C 5,7 C 0,0 km/h (0 Bft)
09.05.2011 06:50 13,1 C 15,9 C 7,8 C 10,7 C 6,0 C 0,0 C 69 % 83 % 0 % 1028,2 hPa 0,0 l/m 0,0 km/h (0 Bft) W 270 0 min 0,0 UV-I 7,5 C 6,0 C 0,0 km/h (0 Bft)
09.05.2011 06:55 16,7 C 15,9 C 7,8 C 13,5 C 7,2 C 0,0 C 58 % 83 % 0 % 1028,6 hPa 0,0 l/m 0,2 km/h (0 Bft) S 180 0 min 0,0 UV-I 8,4 C 7,2 C 0,0 km/h (0 Bft)
09.05.2011 07:00 17,9 C 15,8 C 7,9 C 15,2 C 9,8 C 0,0 C 55 % 83 % 0 % 1028,6 hPa 0,0 l/m 0,2 km/h (0 Bft) S 180 0 min 0,0 UV-I 8,7 C 9,8 C 0,0 km/h (0 Bft)
09.05.2011 07:10 16,4 C 15,8 C 8,3 C 15,7 C 14,4 C 0,0 C 56 % 83 % 0 % 1028,6 hPa 0,0 l/m 0,0 km/h (0 Bft) N 0 0 min 0,0 UV-I 7,6 C 14,4 C 0,0 km/h (0 Bft)
09.05.2011 07:15 16,7 C 15,8 C 8,4 C 16,6 C 16,4 C 0,0 C 55 % 83 % 0 % 1028,5 hPa 0,0 l/m 0,0 km/h (0 Bft) W-SW 247 0 min 0,0 UV-I 7,6 C 16,4 C 0,0 km/h (0 Bft)
09.05.2011 07:20 16,7 C 15,8 C 8,6 C 17,3 C 17,3 C 0,6 C 55 % 83 % 16 % 1028,5 hPa 0,0 l/m 0,0 km/h (0 Bft) W-SW 247 0 min 0,0 UV-I 7,6 C 17,3 C 1,6 km/h (1 Bft)
09.05.2011 07:25 15,5 C 15,8 C 8,7 C 18,0 C 18,0 C 2,5 C 56 % 82 % 66 % 1028,5 hPa 0,0 l/m 0,3 km/h (0 Bft) W 270 0 min 0,0 UV-I 6,8 C 18,0 C 0,0 km/h (0 Bft)
09.05.2011 07:30 15,1 C 15,7 C 8,7 C 18,7 C 18,7 C 3,6 C 57 % 82 % 95 % 1028,5 hPa 0,0 l/m 0,3 km/h (0 Bft) SW 225 5 min 0,0 UV-I 6,6 C 18,7 C 0,0 km/h (0 Bft)
09.05.2011 07:35 17,1 C 15,7 C 8,9 C 19,5 C 19,5 C 2,4 C 55 % 82 % 63 % 1028,9 hPa 0,0 l/m 0,0 km/h (0 Bft) W 270 0 min 0,1 UV-I 8,0 C 19,5 C 0,0 km/h (0 Bft)
09.05.2011 07:40 16,5 C 15,6 C 9,1 C 20,0 C 20,0 C 3,5 C 54 % 81 % 92 % 1028,9 hPa 0,0 l/m 0,0 km/h (0 Bft) S-SW 202 5 min 0,1 UV-I 7,2 C 20,0 C 0,0 km/h (0 Bft)
09.05.2011 07:45 15,5 C 15,6 C 9,2 C 20,2 C 20,2 C 4,7 C 56 % 81 % 100 % 1028,9 hPa 0,0 l/m 0,2 km/h (0 Bft) W-SW 247 5 min 0,1 UV-I 6,8 C 20,2 C 0,0 km/h (0 Bft)
09.05.2011 07:50 15,5 C 15,6 C 9,5 C 20,8 C 20,8 C 5,3 C 57 % 81 % 100 % 1028,9 hPa 0,0 l/m 0,2 km/h (0 Bft) W 270 5 min 0,1 UV-I 7,0 C 20,8 C 0,0 km/h (0 Bft)
09.05.2011 07:55 15,5 C 15,7 C 9,9 C 21,4 C 21,4 C 5,9 C 57 % 80 % 100 % 1028,9 hPa 0,0 l/m 0,0 km/h (0 Bft) W-SW 247 5 min 0,2 UV-I 7,0 C 21,4 C 0,0 km/h (0 Bft)
09.05.2011 08:00 15,6 C 15,6 C 10,0 C 21,4 C 21,4 C 5,8 C 58 % 80 % 100 % 1028,9 hPa 0,0 l/m 0,0 km/h (0 Bft) W-SW 247 5 min 0,2 UV-I 7,4 C 21,4 C 1,9 km/h (1 Bft)
09.05.2011 08:10 17,6 C 15,6 C 10,2 C 21,7 C 21,7 C 4,1 C 56 % 79 % 100 % 1028,9 hPa 0,0 l/m 0,5 km/h (0 Bft) N 0 10 min 0,2 UV-I 8,7 C 21,7 C 2,9 km/h (1 Bft)
09.05.2011 08:15 19,3 C 15,6 C 10,5 C 22,0 C 22,0 C 2,7 C 52 % 79 % 71 % 1028,9 hPa 0,0 l/m 0,5 km/h (0 Bft) S 180 0 min 0,3 UV-I 9,2 C 22,0 C 1,9 km/h (1 Bft)
09.05.2011 08:20 19,9 C 15,6 C 10,5 C 22,3 C 22,3 C 2,4 C 49 % 79 % 63 % 1028,9 hPa 0,0 l/m 0,5 km/h (0 Bft) NO 45 0 min 0,3 UV-I 8,9 C 22,3 C 0,0 km/h (0 Bft)
09.05.2011 08:25 19,1 C 15,6 C 10,8 C 22,6 C 22,6 C 3,5 C 52 % 80 % 92 % 1028,9 hPa 0,0 l/m 0,3 km/h (0 Bft) NO 45 5 min 0,4 UV-I 9,0 C 22,6 C 0,0 km/h (0 Bft)
09.05.2011 08:30 18,8 C 15,6 C 10,9 C 22,5 C 22,5 C 3,7 C 51 % 80 % 97 % 1028,9 hPa 0,0 l/m 0,5 km/h (0 Bft) S-SW 202 5 min 0,4 UV-I 8,4 C 22,5 C 0,0 km/h (0 Bft)
09.05.2011 08:35 18,0 C 15,6 C 11,1 C 22,8 C 22,8 C 4,8 C 52 % 79 % 100 % 1028,9 hPa 0,0 l/m 1,1 km/h (1 Bft) SW 225 5 min 0,5 UV-I 8,0 C 22,8 C 5,3 km/h (1 Bft)
09.05.2011 08:40 17,4 C 15,6 C 11,3 C 22,9 C 22,9 C 5,5 C 53 % 78 % 100 % 1028,9 hPa 0,0 l/m 1,4 km/h (1 Bft) N-NO 22 5 min 0,5 UV-I 7,7 C 22,9 C 4,8 km/h (1 Bft)
09.05.2011 08:45 16,8 C 15,6 C 12,1 C 22,4 C 22,4 C 5,6 C 55 % 76 % 100 % 1028,9 hPa 0,0 l/m 2,3 km/h (1 Bft) S-SO 157 5 min 0,6 UV-I 7,7 C 22,4 C 6,0 km/h (2 Bft)
09.05.2011 08:50 16,8 C 15,5 C 12,1 C 23,0 C 23,0 C 6,2 C 55 % 76 % 100 % 1028,9 hPa 0,0 l/m 1,8 km/h (1 Bft) S 180 5 min 0,6 UV-I 7,7 C 23,0 C 0,0 km/h (0 Bft)
09.05.2011 08:55 16,8 C 15,5 C 12,2 C 23,9 C 23,9 C 7,1 C 56 % 76 % 100 % 1028,9 hPa 0,0 l/m 0,8 km/h (0 Bft) SW 225 5 min 0,7 UV-I 8,0 C 23,9 C 1,8 km/h (1 Bft)
09.05.2011 09:00 16,8 C 15,5 C 12,6 C 23,6 C 23,6 C 6,8 C 56 % 75 % 100 % 1028,9 hPa 0,0 l/m 0,8 km/h (0 Bft) W 270 5 min 0,7 UV-I 8,0 C 23,6 C 0,0 km/h (0 Bft)
09.05.2011 09:10 16,7 C 15,5 C 13,0 C 23,5 C 23,5 C 6,8 C 56 % 73 % 100 % 1028,9 hPa 0,0 l/m 1,4 km/h (1 Bft) N 0 10 min 0,8 UV-I 7,9 C 23,5 C 3,4 km/h (1 Bft)
09.05.2011 09:15 16,7 C 15,5 C 13,2 C 22,9 C 22,9 C 6,2 C 56 % 72 % 100 % 1028,8 hPa 0,0 l/m 2,3 km/h (1 Bft) W-SW 247 5 min 0,9 UV-I 7,9 C 22,9 C 0,0 km/h (0 Bft)
09.05.2011 09:20 16,8 C 15,5 C 13,5 C 23,0 C 23,0 C 6,2 C 56 % 71 % 100 % 1028,8 hPa 0,0 l/m 2,4 km/h (1 Bft) O 90 5 min 0,9 UV-I 8,0 C 23,0 C 3,4 km/h (1 Bft)
09.05.2011 09:25 16,8 C 15,5 C 13,8 C 23,0 C 23,0 C 6,2 C 56 % 71 % 100 % 1028,8 hPa 0,0 l/m 2,4 km/h (1 Bft) O-NO 67 5 min 1,1 UV-I 8,0 C 23,0 C 6,8 km/h (2 Bft)
09.05.2011 09:30 16,9 C 15,5 C 14,3 C 21,0 C 21,0 C 4,1 C 56 % 70 % 100 % 1028,8 hPa 0,0 l/m 2,6 km/h (1 Bft) O-NO 67 5 min 1,1 UV-I 8,1 C 21,0 C 2,7 km/h (1 Bft)
09.05.2011 09:35 17,1 C 15,5 C 14,2 C 19,3 C 19,3 C 2,2 C 55 % 69 % 58 % 1028,8 hPa 0,0 l/m 2,7 km/h (1 Bft) O-NO 67 0 min 0,6 UV-I 8,0 C 19,3 C 5,8 km/h (2 Bft)
09.05.2011 09:40 17,2 C 15,5 C 14,6 C 18,6 C 18,6 C 1,4 C 56 % 68 % 37 % 1028,8 hPa 0,0 l/m 3,1 km/h (1 Bft) NO 45 0 min 0,6 UV-I 8,3 C 18,6 C 7,4 km/h (2 Bft)
09.05.2011 09:45 17,3 C 15,5 C 14,9 C 18,1 C 18,1 C 0,8 C 56 % 68 % 21 % 1028,8 hPa 0,0 l/m 3,5 km/h (1 Bft) NO 45 0 min 0,7 UV-I 8,4 C 18,1 C 7,9 km/h (2 Bft)
09.05.2011 09:50 17,5 C 15,5 C 14,9 C 18,0 C 18,0 C 0,5 C 56 % 68 % 13 % 1028,8 hPa 0,0 l/m 3,4 km/h (1 Bft) O-NO 67 0 min 0,7 UV-I 8,6 C 18,0 C 6,8 km/h (2 Bft)
09.05.2011 09:55 17,6 C 15,5 C 15,5 C 18,0 C 18,0 C 0,4 C 56 % 66 % 11 % 1028,8 hPa 0,0 l/m 3,2 km/h (1 Bft) N-NO 22 0 min 0,7 UV-I 8,7 C 18,0 C 0,0 km/h (0 Bft)
09.05.2011 10:00 17,7 C 15,5 C 15,5 C 18,5 C 18,5 C 0,8 C 55 % 65 % 21 % 1028,8 hPa 0,0 l/m 2,7 km/h (1 Bft) N-NO 22 0 min 0,7 UV-I 8,5 C 18,5 C 5,3 km/h (1 Bft)
09.05.2011 10:10 18,0 C 15,5 C 15,7 C 18,4 C 18,4 C 0,4 C 54 % 64 % 11 % 1028,8 hPa 0,0 l/m 2,3 km/h (1 Bft) N 0 0 min 0,7 UV-I 8,6 C 18,4 C 7,6 km/h (2 Bft)
09.05.2011 10:15 18,2 C 15,5 C 16,1 C 20,2 C 20,2 C 2,0 C 52 % 60 % 53 % 1028,6 hPa 0,0 l/m 2,7 km/h (1 Bft) O-NO 67 0 min 0,8 UV-I 8,2 C 20,2 C 2,9 km/h (1 Bft)
09.05.2011 10:20 18,3 C 15,5 C 16,2 C 21,7 C 21,7 C 3,4 C 48 % 57 % 89 % 1028,6 hPa 0,0 l/m 4,7 km/h (1 Bft) NO 45 5 min 0,8 UV-I 7,1 C 21,7 C 8,9 km/h (2 Bft)
09.05.2011 10:25 18,4 C 15,5 C 16,6 C 22,2 C 22,2 C 3,8 C 50 % 58 % 100 % 1028,6 hPa 0,0 l/m 4,7 km/h (1 Bft) NO 45 5 min 0,8 UV-I 7,8 C 22,2 C 10,8 km/h (2 Bft)
09.05.2011 10:30 18,6 C 15,5 C 16,7 C 22,8 C 22,8 C 4,2 C 47 % 55 % 100 % 1028,6 hPa 0,0 l/m 4,8 km/h (1 Bft) O-NO 67 5 min 0,8 UV-I 7,1 C 22,8 C 6,4 km/h (2 Bft)
09.05.2011 10:35 18,7 C 15,5 C 17,1 C 22,7 C 22,7 C 4,0 C 49 % 55 % 100 % 1028,4 hPa 0,0 l/m 5,8 km/h (2 Bft) N-NO 22 5 min 0,9 UV-I 7,8 C 22,7 C 12,4 km/h (3 Bft)
09.05.2011 10:40 18,8 C 15,5 C 17,1 C 22,9 C 22,9 C 4,1 C 49 % 55 % 100 % 1028,4 hPa 0,0 l/m 5,8 km/h (2 Bft) NO 45 5 min 0,9 UV-I 7,9 C 22,9 C 5,0 km/h (1 Bft)
09.05.2011 10:45 19,0 C 15,5 C 17,4 C 23,2 C 23,2 C 4,2 C 47 % 54 % 100 % 1028,4 hPa 0,0 l/m 5,0 km/h (1 Bft) NO 45 5 min 0,9 UV-I 7,4 C 23,2 C 6,3 km/h (2 Bft)
09.05.2011 10:50 19,1 C 15,5 C 17,5 C 22,8 C 22,8 C 3,7 C 46 % 52 % 97 % 1028,4 hPa 0,0 l/m 6,3 km/h (2 Bft) O-NO 67 5 min 0,9 UV-I 7,2 C 22,8 C 4,0 km/h (1 Bft)
09.05.2011 10:55 19,3 C 15,5 C 17,8 C 22,9 C 22,9 C 3,6 C 45 % 52 % 95 % 1028,6 hPa 0,0 l/m 6,8 km/h (2 Bft) O-NO 67 5 min 0,9 UV-I 7,1 C 22,9 C 12,6 km/h (3 Bft)
09.05.2011 11:00 19,3 C 15,5 C 18,0 C 22,7 C 22,7 C 3,4 C 47 % 53 % 89 % 1028,6 hPa 0,0 l/m 6,3 km/h (2 Bft) O-NO 67 5 min 0,9 UV-I 7,7 C 22,7 C 5,3 km/h (1 Bft)
09.05.2011 11:10 19,5 C 15,5 C 18,1 C 23,2 C 23,2 C 3,7 C 45 % 51 % 97 % 1028,6 hPa 0,0 l/m 4,7 km/h (1 Bft) N 0 10 min 1,1 UV-I 7,2 C 23,2 C 6,8 km/h (2 Bft)
09.05.2011 11:15 19,6 C 15,5 C 18,2 C 21,6 C 21,6 C 2,0 C 44 % 49 % 53 % 1028,6 hPa 0,0 l/m 7,1 km/h (2 Bft) N-NO 22 0 min 1,0 UV-I 7,0 C 21,6 C 13,8 km/h (3 Bft)
09.05.2011 11:20 19,6 C 15,5 C 18,2 C 20,7 C 20,7 C 1,1 C 44 % 49 % 29 % 1028,6 hPa 0,0 l/m 6,8 km/h (2 Bft) O-NO 67 0 min 1,0 UV-I 7,0 C 20,7 C 2,4 km/h (1 Bft)
09.05.2011 11:25 19,8 C 15,5 C 18,4 C 19,9 C 19,9 C 0,1 C 44 % 49 % 3 % 1028,6 hPa 0,0 l/m 6,1 km/h (2 Bft) NO 45 0 min 1,0 UV-I 7,2 C 19,9 C 14,0 km/h (3 Bft)
09.05.2011 11:30 19,7 C 15,5 C 18,5 C 19,7 C 19,7 C 0,0 C 42 % 47 % 0 % 1028,6 hPa 0,0 l/m 6,8 km/h (2 Bft) O-NO 67 0 min 1,0 UV-I 6,4 C 19,7 C 11,9 km/h (2 Bft)
09.05.2011 11:35 19,9 C 15,5 C 18,5 C 20,4 C 20,4 C 0,5 C 43 % 48 % 13 % 1028,5 hPa 0,0 l/m 8,7 km/h (2 Bft) O-NO 67 0 min 1,1 UV-I 6,9 C 20,4 C 8,2 km/h (2 Bft)
09.05.2011 11:40 19,9 C 15,5 C 18,7 C 20,5 C 20,5 C 0,6 C 43 % 48 % 16 % 1028,5 hPa 0,0 l/m 8,4 km/h (2 Bft) O-NO 67 0 min 1,1 UV-I 6,9 C 20,5 C 8,9 km/h (2 Bft)
09.05.2011 11:45 20,3 C 15,5 C 18,9 C 21,6 C 21,6 C 1,3 C 44 % 49 % 34 % 1028,5 hPa 0,0 l/m 6,4 km/h (2 Bft) O 90 0 min 1,1 UV-I 7,6 C 21,6 C 14,2 km/h (3 Bft)
09.05.2011 11:50 20,5 C 15,5 C 19,2 C 22,5 C 22,5 C 2,0 C 44 % 48 % 53 % 1028,5 hPa 0,0 l/m 5,5 km/h (1 Bft) NO 45 0 min 1,1 UV-I 7,8 C 22,5 C 6,0 km/h (2 Bft)
09.05.2011 11:55 20,4 C 15,5 C 19,5 C 23,2 C 23,2 C 2,8 C 42 % 45 % 74 % 1028,5 hPa 0,0 l/m 6,0 km/h (2 Bft) O-NO 67 0 min 1,1 UV-I 7,1 C 23,2 C 9,5 km/h (2 Bft)
09.05.2011 12:00 20,4 C 15,5 C 19,4 C 23,1 C 23,1 C 2,7 C 43 % 47 % 71 % 1028,5 hPa 0,0 l/m 6,3 km/h (2 Bft) O-NO 67 0 min 1,1 UV-I 7,4 C 23,1 C 7,6 km/h (2 Bft)
09.05.2011 12:10 20,7 C 15,5 C 19,6 C 23,2 C 23,2 C 2,5 C 41 % 43 % 66 % 1028,5 hPa 0,0 l/m 7,4 km/h (2 Bft) N 0 0 min 1,2 UV-I 7,0 C 23,2 C 15,1 km/h (3 Bft)
09.05.2011 12:15 20,8 C 15,5 C 19,9 C 23,2 C 23,2 C 2,4 C 40 % 42 % 63 % 1028,2 hPa 0,0 l/m 8,0 km/h (2 Bft) O-NO 67 0 min 1,9 UV-I 6,7 C 23,2 C 15,4 km/h (3 Bft)
09.05.2011 12:20 20,8 C 15,5 C 19,8 C 23,1 C 23,1 C 2,3 C 37 % 41 % 61 % 1028,2 hPa 0,0 l/m 9,0 km/h (2 Bft) O-NO 67 0 min 1,9 UV-I 5,6 C 23,1 C 13,7 km/h (3 Bft)
09.05.2011 12:25 21,1 C 15,5 C 19,9 C 23,4 C 23,4 C 2,3 C 37 % 40 % 61 % 1028,2 hPa 0,0 l/m 7,9 km/h (2 Bft) O-NO 67 0 min 3,3 UV-I 5,8 C 23,4 C 1,9 km/h (1 Bft)
09.05.2011 12:30 21,1 C 15,5 C 20,1 C 24,0 C 24,0 C 2,9 C 37 % 41 % 76 % 1028,2 hPa 0,0 l/m 6,0 km/h (2 Bft) O-NO 67 0 min 3,3 UV-I 5,8 C 24,0 C 11,3 km/h (2 Bft)
09.05.2011 12:35 21,2 C 15,5 C 20,3 C 24,3 C 24,3 C 3,1 C 36 % 40 % 82 % 1028,1 hPa 0,0 l/m 5,1 km/h (1 Bft) O-NO 67 0 min 3,5 UV-I 5,5 C 24,3 C 8,5 km/h (2 Bft)
09.05.2011 12:40 21,2 C 15,5 C 20,4 C 24,2 C 24,2 C 3,0 C 35 % 39 % 79 % 1028,1 hPa 0,0 l/m 7,1 km/h (2 Bft) NO 45 0 min 3,5 UV-I 5,1 C 24,2 C 11,3 km/h (2 Bft)
09.05.2011 12:45 21,2 C 15,5 C 20,5 C 23,8 C 23,8 C 2,6 C 35 % 38 % 68 % 1028,1 hPa 0,0 l/m 8,9 km/h (2 Bft) O-NO 67 0 min 3,4 UV-I 5,1 C 23,8 C 16,7 km/h (3 Bft)
09.05.2011 12:50 21,3 C 15,5 C 20,4 C 23,7 C 23,7 C 2,4 C 35 % 38 % 63 % 1028,1 hPa 0,0 l/m 9,2 km/h (2 Bft) O-NO 67 0 min 3,4 UV-I 5,2 C 23,7 C 12,7 km/h (3 Bft)
09.05.2011 12:55 21,5 C 15,5 C 20,8 C 24,1 C 24,1 C 2,6 C 34 % 37 % 68 % 1027,9 hPa 0,0 l/m 7,7 km/h (2 Bft) NO 45 0 min 3,5 UV-I 5,0 C 24,1 C 13,7 km/h (3 Bft)
09.05.2011 13:00 21,7 C 15,5 C 20,9 C 24,1 C 24,1 C 2,4 C 35 % 39 % 63 % 1027,9 hPa 0,0 l/m 7,2 km/h (2 Bft) NO 45 0 min 3,5 UV-I 5,6 C 24,1 C 12,7 km/h (3 Bft)
09.05.2011 13:10 21,7 C 15,5 C 20,9 C 23,6 C 23,6 C 1,9 C 34 % 36 % 50 % 1027,9 hPa 0,0 l/m 10,0 km/h (2 Bft) N 0 0 min 3,5 UV-I 5,2 C 23,6 C 20,0 km/h (4 Bft)
09.05.2011 13:15 21,9 C 15,5 C 21,0 C 24,4 C 24,4 C 2,5 C 35 % 38 % 66 % 1027,6 hPa 0,0 l/m 6,9 km/h (2 Bft) O-SO 112 0 min 3,4 UV-I 5,7 C 24,4 C 5,3 km/h (1 Bft)
09.05.2011 13:20 21,9 C 15,5 C 21,2 C 24,9 C 24,9 C 3,0 C 35 % 39 % 79 % 1027,6 hPa 0,0 l/m 4,3 km/h (1 Bft) O-NO 67 0 min 3,4 UV-I 5,7 C 24,9 C 7,4 km/h (2 Bft)
09.05.2011 13:25 21,9 C 15,5 C 21,3 C 25,0 C 25,0 C 3,1 C 35 % 37 % 82 % 1027,6 hPa 0,0 l/m 5,1 km/h (1 Bft) O-NO 67 0 min 3,3 UV-I 5,7 C 25,0 C 6,6 km/h (2 Bft)
09.05.2011 13:30 22,0 C 15,5 C 21,2 C 24,8 C 24,8 C 2,8 C 33 % 36 % 74 % 1027,6 hPa 0,0 l/m 7,6 km/h (2 Bft) NO 45 0 min 3,3 UV-I 5,0 C 24,8 C 8,5 km/h (2 Bft)
09.05.2011 13:35 22,0 C 16,1 C 21,2 C 24,5 C 24,5 C 2,5 C 33 % 36 % 66 % 1027,7 hPa 0,0 l/m 9,3 km/h (2 Bft) NO 45 0 min 3,3 UV-I 5,0 C 24,5 C 13,8 km/h (3 Bft)
09.05.2011 13:40 22,1 C 16,1 C 21,3 C 24,6 C 24,6 C 2,5 C 34 % 37 % 66 % 1027,7 hPa 0,0 l/m 7,7 km/h (2 Bft) O-NO 67 0 min 3,3 UV-I 5,5 C 24,6 C 2,9 km/h (1 Bft)
09.05.2011 13:45 22,3 C 16,2 C 21,5 C 25,0 C 25,0 C 2,7 C 35 % 38 % 71 % 1027,7 hPa 0,0 l/m 6,3 km/h (2 Bft) O-NO 67 0 min 3,3 UV-I 6,1 C 25,0 C 8,9 km/h (2 Bft)
09.05.2011 13:50 22,4 C 16,2 C 21,6 C 25,5 C 25,5 C 3,1 C 34 % 36 % 82 % 1027,7 hPa 0,0 l/m 4,8 km/h (1 Bft) O-NO 67 0 min 3,3 UV-I 5,8 C 25,5 C 6,0 km/h (2 Bft)
09.05.2011 13:55 22,3 C 16,2 C 21,7 C 25,5 C 25,5 C 3,2 C 33 % 35 % 84 % 1027,6 hPa 0,0 l/m 6,1 km/h (2 Bft) O 90 0 min 3,3 UV-I 5,2 C 25,5 C 11,4 km/h (2 Bft)
09.05.2011 14:00 22,3 C 16,2 C 21,6 C 25,0 C 25,0 C 2,7 C 35 % 38 % 71 % 1027,6 hPa 0,0 l/m 7,9 km/h (2 Bft) NO 45 0 min 3,3 UV-I 6,1 C 25,0 C 8,9 km/h (2 Bft)
09.05.2011 14:10 22,5 C 16,2 C 21,8 C 25,2 C 25,2 C 2,7 C 34 % 38 % 71 % 1027,6 hPa 0,0 l/m 6,9 km/h (2 Bft) N 0 0 min 3,2 UV-I 5,9 C 25,2 C 16,7 km/h (3 Bft)
09.05.2011 14:15 22,7 C 16,3 C 22,3 C 25,6 C 25,6 C 2,9 C 34 % 38 % 76 % 1027,4 hPa 0,0 l/m 6,4 km/h (2 Bft) NO 45 0 min 3,1 UV-I 6,0 C 25,6 C 5,3 km/h (1 Bft)
09.05.2011 14:20 22,8 C 16,3 C 22,3 C 25,9 C 25,9 C 3,1 C 35 % 38 % 82 % 1027,4 hPa 0,0 l/m 5,1 km/h (1 Bft) O-NO 67 0 min 3,1 UV-I 6,5 C 25,9 C 3,2 km/h (1 Bft)
09.05.2011 14:25 22,8 C 16,3 C 22,5 C 25,9 C 25,9 C 3,1 C 33 % 34 % 82 % 1027,4 hPa 0,0 l/m 6,1 km/h (2 Bft) O-NO 67 0 min 3,0 UV-I 5,7 C 25,9 C 6,8 km/h (2 Bft)
09.05.2011 14:30 22,8 C 16,3 C 22,7 C 25,9 C 25,9 C 3,1 C 34 % 35 % 82 % 1027,4 hPa 0,0 l/m 6,0 km/h (2 Bft) O-NO 67 0 min 3,0 UV-I 6,1 C 25,9 C 3,1 km/h (1 Bft)
09.05.2011 14:35 22,9 C 16,3 C 23,5 C 26,1 C 26,1 C 3,2 C 33 % 34 % 84 % 1027,2 hPa 0,0 l/m 4,7 km/h (1 Bft) O-NO 67 0 min 3,0 UV-I 5,8 C 26,1 C 2,1 km/h (1 Bft)
09.05.2011 14:40 23,0 C 16,4 C 23,6 C 26,3 C 26,3 C 3,3 C 32 % 33 % 87 % 1027,2 hPa 0,0 l/m 5,3 km/h (1 Bft) O-NO 67 5 min 3,0 UV-I 5,4 C 26,3 C 14,6 km/h (3 Bft)
09.05.2011 14:45 23,1 C 16,4 C 23,6 C 25,9 C 25,9 C 2,8 C 32 % 34 % 74 % 1027,2 hPa 0,0 l/m 6,4 km/h (2 Bft) O-NO 67 0 min 2,8 UV-I 5,5 C 25,9 C 11,4 km/h (2 Bft)
09.05.2011 14:50 23,1 C 16,5 C 23,9 C 25,9 C 25,9 C 2,8 C 32 % 32 % 74 % 1027,2 hPa 0,0 l/m 6,6 km/h (2 Bft) O-NO 67 0 min 2,8 UV-I 5,5 C 25,9 C 2,7 km/h (1 Bft)
09.05.2011 14:55 23,3 C 16,5 C 24,3 C 26,5 C 26,5 C 3,2 C 32 % 32 % 84 % 1027,2 hPa 0,0 l/m 5,1 km/h (1 Bft) NO 45 0 min 2,6 UV-I 5,7 C 26,5 C 11,9 km/h (2 Bft)
09.05.2011 15:00 23,3 C 16,6 C 24,3 C 26,2 C 26,2 C 2,9 C 31 % 31 % 76 % 1027,2 hPa 0,0 l/m 6,4 km/h (2 Bft) O-NO 67 0 min 2,6 UV-I 5,2 C 26,2 C 10,8 km/h (2 Bft)
09.05.2011 15:10 23,3 C 16,6 C 24,5 C 25,8 C 25,8 C 2,5 C 31 % 31 % 66 % 1027,2 hPa 0,0 l/m 7,9 km/h (2 Bft) N 0 0 min 2,5 UV-I 5,2 C 25,8 C 7,1 km/h (2 Bft)
09.05.2011 15:15 23,5 C 16,6 C 24,7 C 26,1 C 26,1 C 2,6 C 31 % 31 % 68 % 1027,0 hPa 0,0 l/m 6,6 km/h (2 Bft) NO 45 0 min 2,1 UV-I 5,4 C 26,1 C 7,6 km/h (2 Bft)
09.05.2011 15:20 23,7 C 16,6 C 25,1 C 26,5 C 26,5 C 2,8 C 30 % 29 % 74 % 1027,0 hPa 0,0 l/m 5,1 km/h (1 Bft) O-NO 67 0 min 2,1 UV-I 5,1 C 26,5 C 4,5 km/h (1 Bft)
09.05.2011 15:25 23,7 C 16,6 C 25,0 C 26,6 C 26,6 C 2,9 C 30 % 30 % 76 % 1027,0 hPa 0,0 l/m 6,1 km/h (2 Bft) O-NO 67 0 min 2,1 UV-I 5,1 C 26,6 C 17,9 km/h (3 Bft)
09.05.2011 15:30 23,5 C 16,6 C 24,8 C 26,1 C 26,1 C 2,6 C 30 % 29 % 68 % 1027,0 hPa 0,0 l/m 8,0 km/h (2 Bft) O 90 0 min 2,1 UV-I 4,9 C 26,1 C 10,6 km/h (2 Bft)
09.05.2011 15:35 23,7 C 16,6 C 25,0 C 26,1 C 26,1 C 2,4 C 29 % 28 % 63 % 1026,9 hPa 0,0 l/m 7,9 km/h (2 Bft) NO 45 0 min 2,1 UV-I 4,6 C 26,1 C 1,9 km/h (1 Bft)
09.05.2011 15:40 23,9 C 16,6 C 25,2 C 26,6 C 26,6 C 2,7 C 29 % 29 % 71 % 1026,9 hPa 0,0 l/m 5,5 km/h (1 Bft) O-NO 67 0 min 2,1 UV-I 4,8 C 26,6 C 13,0 km/h (3 Bft)
09.05.2011 15:45 23,6 C 16,6 C 24,7 C 26,1 C 26,1 C 2,5 C 29 % 28 % 66 % 1026,9 hPa 0,0 l/m 7,6 km/h (2 Bft) O-NO 67 0 min 1,9 UV-I 4,5 C 26,1 C 14,6 km/h (3 Bft)
09.05.2011 15:50 23,6 C 16,6 C 24,5 C 25,8 C 25,8 C 2,2 C 28 % 28 % 58 % 1026,9 hPa 0,0 l/m 9,7 km/h (2 Bft) O-NO 67 0 min 1,9 UV-I 4,0 C 25,8 C 10,1 km/h (2 Bft)
09.05.2011 15:55 23,6 C 16,6 C 24,6 C 25,9 C 25,9 C 2,3 C 28 % 28 % 61 % 1027,1 hPa 0,0 l/m 8,5 km/h (2 Bft) O-NO 67 0 min 1,8 UV-I 4,0 C 25,9 C 12,2 km/h (2 Bft)
09.05.2011 16:00 23,7 C 16,6 C 24,5 C 25,9 C 25,9 C 2,2 C 30 % 30 % 58 % 1027,1 hPa 0,0 l/m 7,4 km/h (2 Bft) O-NO 67 0 min 1,8 UV-I 5,1 C 25,9 C 7,7 km/h (2 Bft)
09.05.2011 16:10 23,8 C 16,6 C 24,7 C 26,1 C 26,1 C 2,3 C 28 % 28 % 61 % 1027,1 hPa 0,0 l/m 6,8 km/h (2 Bft) N 0 0 min 1,7 UV-I 4,2 C 26,1 C 5,1 km/h (1 Bft)
09.05.2011 16:15 23,9 C 16,6 C 24,7 C 26,3 C 26,3 C 2,4 C 30 % 31 % 63 % 1026,8 hPa 0,0 l/m 6,1 km/h (2 Bft) O-NO 67 0 min 1,4 UV-I 5,3 C 26,3 C 6,4 km/h (2 Bft)
09.05.2011 16:20 23,9 C 16,6 C 24,6 C 26,5 C 26,5 C 2,6 C 31 % 31 % 68 % 1026,8 hPa 0,0 l/m 6,0 km/h (2 Bft) O-NO 67 0 min 1,4 UV-I 5,7 C 26,5 C 6,0 km/h (2 Bft)
09.05.2011 16:25 24,0 C 16,6 C 24,5 C 26,7 C 26,7 C 2,7 C 30 % 31 % 71 % 1026,8 hPa 0,0 l/m 4,8 km/h (1 Bft) O-NO 67 0 min 1,3 UV-I 5,3 C 26,7 C 10,0 km/h (2 Bft)
09.05.2011 16:30 24,1 C 16,6 C 24,5 C 26,7 C 26,7 C 2,6 C 29 % 30 % 68 % 1026,8 hPa 0,0 l/m 4,8 km/h (1 Bft) O-NO 67 0 min 1,3 UV-I 4,9 C 26,7 C 3,7 km/h (1 Bft)
09.05.2011 16:35 23,9 C 16,6 C 24,2 C 26,5 C 26,5 C 2,6 C 28 % 28 % 68 % 1026,8 hPa 0,0 l/m 6,8 km/h (2 Bft) O-NO 67 0 min 1,0 UV-I 4,3 C 26,5 C 24,3 km/h (4 Bft)
09.05.2011 16:40 23,7 C 16,6 C 23,9 C 25,9 C 25,9 C 2,2 C 29 % 29 % 58 % 1026,8 hPa 0,0 l/m 8,7 km/h (2 Bft) NO 45 0 min 1,0 UV-I 4,6 C 25,9 C 5,3 km/h (1 Bft)
09.05.2011 16:45 23,9 C 16,6 C 24,0 C 26,0 C 26,0 C 2,1 C 30 % 31 % 55 % 1026,8 hPa 0,0 l/m 7,2 km/h (2 Bft) O-NO 67 0 min 0,7 UV-I 5,3 C 26,0 C 11,1 km/h (2 Bft)
09.05.2011 16:50 23,9 C 16,6 C 24,0 C 26,1 C 26,1 C 2,2 C 30 % 31 % 58 % 1026,8 hPa 0,0 l/m 5,5 km/h (1 Bft) O-NO 67 0 min 0,7 UV-I 5,3 C 26,1 C 6,3 km/h (2 Bft)
09.05.2011 16:55 23,9 C 16,6 C 23,9 C 26,1 C 26,1 C 2,2 C 30 % 32 % 58 % 1026,8 hPa 0,0 l/m 7,1 km/h (2 Bft) O-NO 67 0 min 0,6 UV-I 5,3 C 26,1 C 9,7 km/h (2 Bft)
09.05.2011 17:00 24,0 C 16,6 C 23,9 C 26,1 C 26,1 C 2,1 C 30 % 31 % 55 % 1026,8 hPa 0,0 l/m 6,1 km/h (2 Bft) O-NO 67 0 min 0,6 UV-I 5,3 C 26,1 C 9,8 km/h (2 Bft)
09.05.2011 17:10 24,3 C 16,6 C 23,8 C 26,8 C 26,8 C 2,5 C 27 % 28 % 66 % 1026,8 hPa 0,0 l/m 4,0 km/h (1 Bft) N 0 0 min 0,7 UV-I 4,1 C 26,8 C 5,6 km/h (1 Bft)
09.05.2011 17:15 24,4 C 16,6 C 23,8 C 27,2 C 27,2 C 2,8 C 24 % 25 % 74 % 1026,9 hPa 0,0 l/m 3,2 km/h (1 Bft) O-NO 67 0 min 0,7 UV-I 2,5 C 27,2 C 8,5 km/h (2 Bft)
09.05.2011 17:20 24,4 C 16,6 C 23,9 C 27,4 C 27,4 C 3,0 C 23 % 27 % 79 % 1026,9 hPa 0,0 l/m 3,4 km/h (1 Bft) O-NO 67 0 min 0,7 UV-I 1,9 C 27,4 C 11,9 km/h (2 Bft)
09.05.2011 17:25 24,3 C 16,6 C 23,7 C 26,9 C 26,9 C 2,6 C 23 % 24 % 68 % 1026,9 hPa 0,0 l/m 4,7 km/h (1 Bft) O-NO 67 0 min 0,6 UV-I 1,8 C 26,9 C 3,7 km/h (1 Bft)
09.05.2011 17:30 24,3 C 16,6 C 23,5 C 26,6 C 26,6 C 2,3 C 22 % 23 % 61 % 1026,9 hPa 0,0 l/m 5,8 km/h (2 Bft) O-NO 67 0 min 0,6 UV-I 1,2 C 26,6 C 10,1 km/h (2 Bft)
09.05.2011 17:35 24,4 C 16,6 C 23,4 C 26,5 C 26,5 C 2,1 C 22 % 25 % 55 % 1026,9 hPa 0,0 l/m 5,0 km/h (1 Bft) N-NW 337 0 min 0,5 UV-I 1,3 C 26,5 C 4,7 km/h (1 Bft)
09.05.2011 17:40 24,4 C 16,6 C 23,3 C 26,7 C 26,7 C 2,3 C 22 % 24 % 61 % 1026,9 hPa 0,0 l/m 4,0 km/h (1 Bft) O-SO 112 0 min 0,5 UV-I 1,3 C 26,7 C 2,1 km/h (1 Bft)
09.05.2011 17:45 24,5 C 16,6 C 23,3 C 26,9 C 26,9 C 2,4 C 22 % 24 % 63 % 1026,9 hPa 0,0 l/m 3,5 km/h (1 Bft) N-NO 22 0 min 0,4 UV-I 1,4 C 26,9 C 5,1 km/h (1 Bft)
09.05.2011 17:50 24,5 C 16,6 C 23,2 C 26,9 C 26,9 C 2,4 C 22 % 25 % 63 % 1026,9 hPa 0,0 l/m 3,4 km/h (1 Bft) NO 45 0 min 0,4 UV-I 1,4 C 26,9 C 3,1 km/h (1 Bft)
09.05.2011 17:55 24,7 C 16,6 C 23,3 C 26,9 C 26,9 C 2,2 C 24 % 27 % 58 % 1026,8 hPa 0,0 l/m 3,4 km/h (1 Bft) NO 45 0 min 0,3 UV-I 2,8 C 26,9 C 6,9 km/h (2 Bft)
09.05.2011 18:00 24,4 C 16,6 C 23,1 C 26,7 C 26,7 C 2,3 C 24 % 26 % 61 % 1026,8 hPa 0,0 l/m 3,5 km/h (1 Bft) O-SO 112 0 min 0,3 UV-I 2,5 C 26,7 C 3,1 km/h (1 Bft)
09.05.2011 18:10 24,4 C 16,6 C 23,0 C 26,5 C 26,5 C 2,1 C 23 % 26 % 55 % 1026,8 hPa 0,0 l/m 4,0 km/h (1 Bft) N 0 0 min 0,3 UV-I 1,9 C 26,5 C 3,7 km/h (1 Bft)
09.05.2011 18:15 24,4 C 16,6 C 22,8 C 26,4 C 26,4 C 2,0 C 24 % 29 % 53 % 1026,8 hPa 0,0 l/m 3,7 km/h (1 Bft) N-NO 22 0 min 0,2 UV-I 2,5 C 26,4 C 3,2 km/h (1 Bft)
09.05.2011 18:20 24,3 C 16,6 C 22,7 C 26,2 C 26,2 C 1,9 C 25 % 29 % 50 % 1026,8 hPa 0,0 l/m 3,9 km/h (1 Bft) O 90 0 min 0,2 UV-I 3,0 C 26,2 C 5,5 km/h (1 Bft)
09.05.2011 18:25 24,1 C 16,6 C 22,6 C 25,9 C 25,9 C 1,8 C 23 % 26 % 47 % 1026,8 hPa 0,0 l/m 5,1 km/h (1 Bft) NO 45 0 min 0,2 UV-I 1,7 C 25,9 C 9,3 km/h (2 Bft)
09.05.2011 18:30 24,1 C 16,6 C 22,4 C 25,5 C 25,5 C 1,4 C 23 % 26 % 37 % 1026,8 hPa 0,0 l/m 5,6 km/h (1 Bft) O 90 0 min 0,2 UV-I 1,7 C 25,5 C 8,5 km/h (2 Bft)
09.05.2011 18:35 24,1 C 16,6 C 22,4 C 25,3 C 25,3 C 1,2 C 22 % 26 % 32 % 1026,8 hPa 0,0 l/m 5,6 km/h (1 Bft) NW 315 0 min 0,1 UV-I 1,1 C 25,3 C 10,1 km/h (2 Bft)
09.05.2011 18:40 24,0 C 16,6 C 22,4 C 25,3 C 25,3 C 1,3 C 23 % 26 % 34 % 1026,8 hPa 0,0 l/m 4,3 km/h (1 Bft) O-NO 67 0 min 0,1 UV-I 1,6 C 25,3 C 0,0 km/h (0 Bft)
09.05.2011 18:45 24,1 C 16,6 C 22,3 C 25,4 C 25,4 C 1,3 C 22 % 26 % 34 % 1026,8 hPa 0,0 l/m 3,5 km/h (1 Bft) O-NO 67 0 min 0,1 UV-I 1,1 C 25,4 C 9,0 km/h (2 Bft)
09.05.2011 18:50 24,0 C 16,6 C 22,2 C 25,4 C 25,4 C 1,4 C 23 % 26 % 37 % 1026,8 hPa 0,0 l/m 3,1 km/h (1 Bft) O-SO 112 0 min 0,1 UV-I 1,6 C 25,4 C 6,8 km/h (2 Bft)
09.05.2011 18:55 24,0 C 16,6 C 22,0 C 25,6 C 25,6 C 1,6 C 24 % 28 % 42 % 1026,8 hPa 0,0 l/m 2,9 km/h (1 Bft) O 90 0 min 0,1 UV-I 2,2 C 25,6 C 6,4 km/h (2 Bft)
09.05.2011 19:00 24,0 C 16,6 C 22,0 C 25,6 C 25,6 C 1,6 C 24 % 28 % 42 % 1026,8 hPa 0,0 l/m 2,3 km/h (1 Bft) O-NO 67 0 min 0,1 UV-I 2,2 C 25,6 C 8,7 km/h (2 Bft)
09.05.2011 19:10 23,9 C 16,6 C 21,9 C 25,1 C 25,1 C 1,2 C 24 % 29 % 32 % 1026,8 hPa 0,0 l/m 3,4 km/h (1 Bft) N 0 0 min 0,0 UV-I 2,1 C 25,1 C 2,3 km/h (1 Bft)
09.05.2011 19:15 23,7 C 16,6 C 22,3 C 24,9 C 24,9 C 1,2 C 25 % 29 % 32 % 1026,9 hPa 0,0 l/m 2,6 km/h (1 Bft) NO 45 0 min 0,0 UV-I 2,5 C 24,9 C 1,6 km/h (1 Bft)
09.05.2011 19:20 23,7 C 16,6 C 22,5 C 24,7 C 24,7 C 1,0 C 25 % 29 % 26 % 1026,9 hPa 0,0 l/m 2,1 km/h (1 Bft) O-NO 67 0 min 0,0 UV-I 2,5 C 24,7 C 4,3 km/h (1 Bft)
09.05.2011 19:25 23,5 C 18,3 C 22,5 C 24,6 C 24,6 C 1,1 C 25 % 29 % 29 % 1026,9 hPa 0,0 l/m 1,9 km/h (1 Bft) O-NO 67 0 min 0,0 UV-I 2,3 C 24,6 C 4,7 km/h (1 Bft)
09.05.2011 19:30 23,5 C 18,3 C 22,1 C 24,3 C 24,3 C 0,8 C 26 % 30 % 21 % 1026,9 hPa 0,0 l/m 2,3 km/h (1 Bft) O 90 0 min 0,0 UV-I 2,9 C 24,3 C 2,6 km/h (1 Bft)
09.05.2011 19:35 23,3 C 18,3 C 21,9 C 23,9 C 23,9 C 0,6 C 26 % 30 % 16 % 1027,0 hPa 0,0 l/m 2,4 km/h (1 Bft) O-NO 67 0 min 0,0 UV-I 2,7 C 23,9 C 4,5 km/h (1 Bft)
09.05.2011 19:40 23,2 C 18,3 C 21,8 C 23,7 C 23,7 C 0,5 C 26 % 30 % 13 % 1027,0 hPa 0,0 l/m 2,1 km/h (1 Bft) NO 45 0 min 0,0 UV-I 2,6 C 23,7 C 2,1 km/h (1 Bft)
09.05.2011 19:45 23,0 C 18,3 C 21,7 C 23,4 C 23,4 C 0,4 C 26 % 31 % 11 % 1027,0 hPa 0,0 l/m 1,6 km/h (1 Bft) NO 45 0 min 0,0 UV-I 2,5 C 23,4 C 3,5 km/h (1 Bft)
09.05.2011 19:50 23,1 C 18,3 C 21,2 C 23,2 C 23,2 C 0,1 C 26 % 31 % 3 % 1027,0 hPa 0,0 l/m 1,6 km/h (1 Bft) O-NO 67 0 min 0,0 UV-I 2,5 C 23,2 C 3,7 km/h (1 Bft)
09.05.2011 19:55 22,8 C 18,3 C 20,7 C 22,8 C 22,8 C 0,0 C 27 % 32 % 0 % 1027,1 hPa 0,0 l/m 1,3 km/h (1 Bft) NO 45 0 min 0,0 UV-I 2,8 C 22,8 C 2,1 km/h (1 Bft)
09.05.2011 20:00 22,6 C 18,3 C 20,4 C 22,6 C 22,5 C 0,0 C 26 % 32 % 0 % 1027,1 hPa 0,0 l/m 1,4 km/h (1 Bft) O-NO 67 0 min 0,0 UV-I 2,1 C 22,5 C 3,7 km/h (1 Bft)
09.05.2011 20:10 21,6 C 18,3 C 19,9 C 21,4 C 20,9 C 0,0 C 28 % 32 % 0 % 1027,1 hPa 0,0 l/m 2,6 km/h (1 Bft) N 0 0 min 0,0 UV-I 2,3 C 20,9 C 3,2 km/h (1 Bft)
09.05.2011 20:15 21,2 C 18,3 C 19,5 C 20,7 C 19,7 C 0,0 C 27 % 32 % 0 % 1027,1 hPa 0,0 l/m 2,4 km/h (1 Bft) O 90 0 min 0,0 UV-I 1,5 C 19,7 C 2,7 km/h (1 Bft)
09.05.2011 20:20 20,9 C 18,3 C 19,3 C 20,3 C 19,0 C 0,0 C 27 % 33 % 0 % 1027,1 hPa 0,0 l/m 1,8 km/h (1 Bft) O-SO 112 0 min 0,0 UV-I 1,2 C 19,0 C 1,9 km/h (1 Bft)
09.05.2011 20:25 20,8 C 18,3 C 19,1 C 20,0 C 18,3 C 0,0 C 29 % 33 % 0 % 1027,1 hPa 0,0 l/m 1,1 km/h (1 Bft) NO 45 0 min 0,0 UV-I 2,1 C 18,3 C 1,6 km/h (1 Bft)
09.05.2011 20:30 20,7 C 18,3 C 18,8 C 19,7 C 17,8 C 0,0 C 29 % 34 % 0 % 1027,1 hPa 0,0 l/m 1,1 km/h (1 Bft) O-NO 67 0 min 0,0 UV-I 2,0 C 17,8 C 0,0 km/h (0 Bft)
09.05.2011 20:35 20,4 C 18,3 C 18,5 C 19,3 C 17,2 C 0,0 C 30 % 37 % 0 % 1027,1 hPa 0,0 l/m 0,6 km/h (0 Bft) O-SO 112 0 min 0,0 UV-I 2,2 C 17,2 C 0,0 km/h (0 Bft)
09.05.2011 20:40 20,3 C 18,3 C 18,3 C 19,2 C 16,9 C 0,0 C 31 % 37 % 0 % 1027,1 hPa 0,0 l/m 0,3 km/h (0 Bft) O-NO 67 0 min 0,0 UV-I 2,6 C 16,9 C 0,0 km/h (0 Bft)
09.05.2011 20:45 20,0 C 18,3 C 18,0 C 18,7 C 16,2 C 0,0 C 32 % 36 % 0 % 1027,1 hPa 0,0 l/m 0,0 km/h (0 Bft) N 360 0 min 0,0 UV-I 2,8 C 16,2 C 0,0 km/h (0 Bft)
09.05.2011 20:50 19,9 C 18,3 C 17,9 C 18,5 C 15,8 C 0,0 C 32 % 38 % 0 % 1027,1 hPa 0,0 l/m 0,0 km/h (0 Bft) N 360 0 min 0,0 UV-I 2,7 C 15,8 C 0,0 km/h (0 Bft)
09.05.2011 20:55 19,6 C 18,3 C 17,4 C 18,2 C 15,3 C 0,0 C 33 % 39 % 0 % 1027,1 hPa 0,0 l/m 0,0 km/h (0 Bft) W-SW 247 0 min 0,0 UV-I 2,9 C 15,3 C 0,0 km/h (0 Bft)
09.05.2011 21:00 19,5 C 18,3 C 17,3 C 18,0 C 15,1 C 0,0 C 33 % 39 % 0 % 1027,1 hPa 0,0 l/m 0,0 km/h (0 Bft) O-NO 67 0 min 0,0 UV-I 2,8 C 15,1 C 0,0 km/h (0 Bft)
09.05.2011 21:10 18,8 C 18,3 C 16,8 C 17,4 C 14,7 C 0,0 C 34 % 40 % 0 % 1027,1 hPa 0,0 l/m 0,0 km/h (0 Bft) N 0 0 min 0,0 UV-I 2,6 C 14,7 C 0,0 km/h (0 Bft)
09.05.2011 21:15 18,5 C 18,3 C 16,5 C 17,2 C 14,6 C 0,0 C 34 % 41 % 0 % 1027,2 hPa 0,0 l/m 0,0 km/h (0 Bft) O-NO 67 0 min 0,0 UV-I 2,3 C 14,6 C 0,0 km/h (0 Bft)
09.05.2011 21:20 18,2 C 18,3 C 16,3 C 16,9 C 14,4 C 0,0 C 36 % 41 % 0 % 1027,2 hPa 0,0 l/m 0,0 km/h (0 Bft) NO 45 0 min 0,0 UV-I 2,9 C 14,4 C 0,0 km/h (0 Bft)
09.05.2011 21:25 17,9 C 18,3 C 15,9 C 16,6 C 14,1 C 0,0 C 37 % 43 % 0 % 1027,2 hPa 0,0 l/m 0,2 km/h (0 Bft) NO 45 0 min 0,0 UV-I 3,0 C 14,1 C 1,6 km/h (1 Bft)
09.05.2011 21:30 17,7 C 18,3 C 15,6 C 16,5 C 14,1 C 0,0 C 36 % 43 % 0 % 1027,2 hPa 0,0 l/m 0,6 km/h (0 Bft) O-NO 67 0 min 0,0 UV-I 2,4 C 14,1 C 0,0 km/h (0 Bft)
09.05.2011 21:35 17,7 C 18,3 C 15,5 C 16,5 C 14,1 C 0,0 C 38 % 46 % 0 % 1027,4 hPa 0,0 l/m 0,8 km/h (0 Bft) O-NO 67 0 min 0,0 UV-I 3,2 C 14,1 C 0,0 km/h (0 Bft)
09.05.2011 21:40 17,7 C 18,3 C 15,3 C 16,4 C 13,8 C 0,0 C 40 % 48 % 0 % 1027,4 hPa 0,0 l/m 0,2 km/h (0 Bft) SW 225 0 min 0,0 UV-I 3,9 C 13,8 C 0,0 km/h (0 Bft)
09.05.2011 21:45 17,6 C 18,3 C 15,0 C 16,1 C 13,1 C 0,0 C 41 % 50 % 0 % 1027,4 hPa 0,0 l/m 0,0 km/h (0 Bft) SW 225 0 min 0,0 UV-I 4,2 C 13,1 C 0,0 km/h (0 Bft)
09.05.2011 21:50 17,5 C 18,3 C 14,8 C 15,9 C 12,7 C 0,0 C 42 % 50 % 0 % 1027,4 hPa 0,0 l/m 0,0 km/h (0 Bft) SW 225 0 min 0,0 UV-I 4,4 C 12,7 C 0,0 km/h (0 Bft)
09.05.2011 21:55 17,3 C 18,3 C 14,5 C 15,6 C 12,2 C 0,0 C 43 % 51 % 0 % 1027,3 hPa 0,0 l/m 0,0 km/h (0 Bft) W-SW 247 0 min 0,0 UV-I 4,6 C 12,2 C 0,0 km/h (0 Bft)
09.05.2011 22:00 16,9 C 18,3 C 14,4 C 15,2 C 11,9 C 0,0 C 43 % 51 % 0 % 1027,3 hPa 0,0 l/m 0,0 km/h (0 Bft) W-SW 247 0 min 0,0 UV-I 4,2 C 11,9 C 0,0 km/h (0 Bft)
09.05.2011 22:10 16,4 C 18,3 C 13,9 C 14,8 C 11,5 C 0,0 C 45 % 54 % 0 % 1027,3 hPa 0,0 l/m 0,2 km/h (0 Bft) N 0 0 min 0,0 UV-I 4,4 C 11,5 C 1,8 km/h (1 Bft)
09.05.2011 22:15 16,4 C 18,3 C 13,7 C 14,7 C 11,2 C 0,0 C 45 % 54 % 0 % 1027,4 hPa 0,0 l/m 0,5 km/h (0 Bft) SW 225 0 min 0,0 UV-I 4,4 C 11,2 C 0,0 km/h (0 Bft)
09.05.2011 22:20 16,3 C 18,3 C 13,5 C 14,5 C 11,0 C 0,0 C 45 % 54 % 0 % 1027,4 hPa 0,0 l/m 0,5 km/h (0 Bft) W-SW 247 0 min 0,0 UV-I 4,3 C 11,0 C 0,0 km/h (0 Bft)
09.05.2011 22:25 16,1 C 18,3 C 13,2 C 14,3 C 10,6 C 0,0 C 46 % 55 % 0 % 1027,4 hPa 0,0 l/m 0,0 km/h (0 Bft) NW 315 0 min 0,0 UV-I 4,5 C 10,6 C 0,0 km/h (0 Bft)
09.05.2011 22:30 16,0 C 18,3 C 13,1 C 14,1 C 10,4 C 0,0 C 46 % 55 % 0 % 1027,4 hPa 0,0 l/m 0,0 km/h (0 Bft) NW 315 0 min 0,0 UV-I 4,4 C 10,4 C 0,0 km/h (0 Bft)
09.05.2011 22:35 15,5 C 18,3 C 12,9 C 13,7 C 10,1 C 0,0 C 47 % 55 % 0 % 1027,7 hPa 0,0 l/m 0,0 km/h (0 Bft) NW 315 0 min 0,0 UV-I 4,2 C 10,1 C 0,0 km/h (0 Bft)
09.05.2011 22:40 15,4 C 18,3 C 12,8 C 13,6 C 9,9 C 0,0 C 47 % 56 % 0 % 1027,7 hPa 0,0 l/m 0,0 km/h (0 Bft) NW 315 0 min 0,0 UV-I 4,1 C 9,9 C 0,0 km/h (0 Bft)
09.05.2011 22:45 15,3 C 18,3 C 12,7 C 13,4 C 9,7 C 0,0 C 48 % 56 % 0 % 1027,7 hPa 0,0 l/m 0,0 km/h (0 Bft) NW 315 0 min 0,0 UV-I 4,4 C 9,7 C 0,0 km/h (0 Bft)
09.05.2011 22:50 15,1 C 18,3 C 12,5 C 13,3 C 9,6 C 0,0 C 48 % 56 % 0 % 1027,7 hPa 0,0 l/m 0,0 km/h (0 Bft) NW 315 0 min 0,0 UV-I 4,2 C 9,6 C 0,0 km/h (0 Bft)
09.05.2011 22:55 15,1 C 18,3 C 12,4 C 13,2 C 9,3 C 0,0 C 49 % 57 % 0 % 1027,4 hPa 0,0 l/m 0,0 km/h (0 Bft) NW 315 0 min 0,0 UV-I 4,5 C 9,3 C 0,0 km/h (0 Bft)
09.05.2011 23:00 14,8 C 18,3 C 12,4 C 12,9 C 9,2 C 0,0 C 49 % 57 % 0 % 1027,4 hPa 0,0 l/m 0,0 km/h (0 Bft) NW 315 0 min 0,0 UV-I 4,2 C 9,2 C 0,0 km/h (0 Bft)
09.05.2011 23:10 14,4 C 18,3 C 11,9 C 12,7 C 9,2 C 0,0 C 51 % 59 % 0 % 1027,4 hPa 0,0 l/m 0,0 km/h (0 Bft) N 0 0 min 0,0 UV-I 4,4 C 9,2 C 0,0 km/h (0 Bft)
09.05.2011 23:15 14,4 C 18,3 C 11,9 C 12,6 C 9,0 C 0,0 C 52 % 61 % 0 % 1027,6 hPa 0,0 l/m 0,0 km/h (0 Bft) NW 315 0 min 0,0 UV-I 4,7 C 9,0 C 0,0 km/h (0 Bft)
09.05.2011 23:20 14,4 C 18,3 C 11,8 C 12,5 C 8,8 C 0,0 C 52 % 60 % 0 % 1027,6 hPa 0,0 l/m 0,0 km/h (0 Bft) NW 315 0 min 0,0 UV-I 4,7 C 8,8 C 0,0 km/h (0 Bft)
09.05.2011 23:25 14,1 C 18,3 C 11,7 C 12,3 C 8,7 C 0,0 C 52 % 61 % 0 % 1027,6 hPa 0,0 l/m 0,0 km/h (0 Bft) NW 315 0 min 0,0 UV-I 4,4 C 8,7 C 0,0 km/h (0 Bft)
09.05.2011 23:30 14,1 C 18,3 C 11,6 C 12,2 C 8,5 C 0,0 C 53 % 62 % 0 % 1027,6 hPa 0,0 l/m 0,0 km/h (0 Bft) W-SW 247 0 min 0,0 UV-I 4,7 C 8,5 C 0,0 km/h (0 Bft)
09.05.2011 23:35 14,0 C 18,3 C 11,5 C 12,1 C 8,4 C 0,0 C 54 % 63 % 0 % 1027,5 hPa 0,0 l/m 0,0 km/h (0 Bft) NO 45 0 min 0,0 UV-I 4,8 C 8,4 C 0,0 km/h (0 Bft)
09.05.2011 23:40 13,7 C 18,3 C 11,3 C 11,9 C 8,4 C 0,0 C 54 % 63 % 0 % 1027,5 hPa 0,0 l/m 0,0 km/h (0 Bft) W-NW 292 0 min 0,0 UV-I 4,6 C 8,4 C 0,0 km/h (0 Bft)
09.05.2011 23:45 13,6 C 17,9 C 11,3 C 11,8 C 8,2 C 0,0 C 55 % 64 % 0 % 1027,5 hPa 0,0 l/m 0,0 km/h (0 Bft) N-NO 22 0 min 0,0 UV-I 4,7 C 8,2 C 0,0 km/h (0 Bft)
09.05.2011 23:50 13,6 C 17,9 C 11,2 C 11,8 C 8,1 C 0,0 C 55 % 65 % 0 % 1027,5 hPa 0,0 l/m 0,0 km/h (0 Bft) SW 225 0 min 0,0 UV-I 4,7 C 8,1 C 0,0 km/h (0 Bft)
09.05.2011 23:55 13,3 C 17,9 C 10,9 C 11,5 C 8,0 C 0,0 C 55 % 64 % 0 % 1027,4 hPa 0,0 l/m 0,0 km/h (0 Bft) SW 225 0 min 0,0 UV-I 4,5 C 8,0 C 0,0 km/h (0 Bft)
_ Min-Zeit 06:00 08:50 06:00 05:55 05:45 00:02 17:30 17:30 00:02 00:12 - 00:17 - - - 00:02 18:35 05:45 00:12
Minimum _ 8,0 C 15,5 C 6,3 C 6,7 C 3,8 C 0,0 C 22 % 23 % 0 % 1026,0 hPa - 0,0 km/h (0 Bft) - - - 0,0 UV-I 1,1 C 3,8 C 0,0 km/h (0 Bft)
_ Max-Zeit 17:55 19:25 15:40 17:20 17:20 08:55 06:10 06:10 07:45 07:35 00:02 13:10 - - 08:10 12:35 08:15 17:20 16:35
Maximum _ 24,7 C 18,3 C 25,2 C 27,4 C 27,4 C 7,1 C 77 % 84 % 100 % 1028,9 hPa 0,0 l/m 10,0 km/h
N (2 Bft)
- - 10 min 3,5 UV-I 9,2 C 27,4 C 24,3 km/h
O-NO (4 Bft)
Durchschnitt _ 17,4 C 16,6 C 15,4 C 18,2 C 16,9 C 1,4 C 48 % 56 % 34 % 1027,5 hPa #0,0 l/m 2,6 km/h (1 Bft) O-NO - #2:50 h 1,4 UV-I 5,1 C 16,9 C 3,9 km/h (1 Bft)
2013 www.wetterstation-wechselburg.de